This is the latest recevied weather packets stored in our database for station/object OK1TOM-6. If no packets are shown the sender has not sent any weather packets the latest 10 day(s).
| Time | Temp. | Humidity | Pressure | Rain* | Wind** | Luminosity | Snow |
|---|---|---|---|---|---|---|---|
| 1777731929 | 22.22° C | 22% | 1023.5 hPa | 0 mm | - | - | - |
| 1777731326 | 22.22° C | 24% | 1023.7 hPa | 0 mm | - | - | - |
| 1777730723 | 22.22° C | 25% | 1023.8 hPa | 0 mm | - | - | - |
| 1777730119 | 22.22° C | 26% | 1023.9 hPa | 0 mm | - | - | - |
| 1777729516 | 22.22° C | 26% | 1023.9 hPa | 0 mm | - | - | - |
| 1777728972 | 21.67° C | 29% | 1024 hPa | 0 mm | - | - | - |
| 1777728369 | 22.22° C | 27% | 1024.2 hPa | 0 mm | - | - | - |
| 1777727766 | 21.67° C | 27% | 1024.3 hPa | 0 mm | - | - | - |
| 1777727162 | 21.67° C | 30% | 1024.5 hPa | 0 mm | - | - | - |
| 1777726559 | 21.67° C | 26% | 1024.7 hPa | 0 mm | - | - | - |
| 1777725955 | 21.67° C | 29% | 1024.8 hPa | 0 mm | - | - | - |
| 1777725352 | 21.67° C | 27% | 1024.8 hPa | 0 mm | - | - | - |
| 1777724749 | 21.67° C | 30% | 1024.9 hPa | 0 mm | - | - | - |
| 1777724145 | 21.11° C | 30% | 1025.1 hPa | 0 mm | - | - | - |
| 1777723541 | 21.11° C | 30% | 1025.2 hPa | 0 mm | - | - | - |
| 1777722938 | 21.11° C | 29% | 1025.4 hPa | 0 mm | - | - | - |
| 1777722335 | 20.56° C | 31% | 1025.5 hPa | 0 mm | - | - | - |
| 1777721731 | 20.56° C | 31% | 1025.6 hPa | 0 mm | - | - | - |
| 1777721128 | 20.56° C | 32% | 1025.6 hPa | 0 mm | - | - | - |
| 1777720524 | 20.56° C | 32% | 1025.8 hPa | 0 mm | - | - | - |
| 1777719921 | 20.56° C | 33% | 1025.9 hPa | 0 mm | - | - | - |
| 1777719317 | 20° C | 34% | 1025.8 hPa | 0 mm | - | - | - |
| 1777718774 | 20° C | 33% | 1026 hPa | 0 mm | - | - | - |
| 1777718171 | 20° C | 35% | 1026.1 hPa | 0 mm | - | - | - |
| 1777717567 | 20° C | 33% | 1026.2 hPa | 0 mm | - | - | - |
* Rain latest hour (hover to see other rain measurements)
** Current wind speed in m/s (hover to see current wind gust speed)